Time,TemperatureF,DewpointF,PressureIn,WindDirection,WindDirectionDegrees,WindSpeedMPH,WindSpeedGustMPH,Humidity,HourlyPrecipIn,Conditions,Clouds,dailyrainin,SoftwareType,DateUTC
2013-02-26 00:00:00,31.0,24.6,30.13,SSE,157,0.0,1.0,77,0.00,,---,0.00,VWS V13.00,2013-02-26 08:00:00,
2013-02-26 00:05:00,31.0,24.3,30.14,SSE,157,1.0,3.0,76,0.00,,---,0.00,VWS V13.00,2013-02-26 08:05:00,
2013-02-26 00:10:00,30.9,24.2,30.14,SSE,156,3.0,4.0,76,0.00,,---,0.00,VWS V13.00,2013-02-26 08:10:00,
2013-02-26 00:15:00,30.8,24.1,30.14,SE,135,2.0,7.0,76,0.00,,---,0.00,VWS V13.00,2013-02-26 08:15:00,
2013-02-26 00:20:00,30.7,24.0,30.14,SE,135,2.0,7.0,76,0.00,,---,0.00,VWS V13.00,2013-02-26 08:20:00,
2013-02-26 00:25:00,30.7,23.7,30.15,SE,128,0.0,7.0,75,0.00,,---,0.00,VWS V13.00,2013-02-26 08:25:00,
2013-02-26 00:30:00,30.8,23.8,30.15,ESE,110,2.0,3.0,75,0.00,,---,0.00,VWS V13.00,2013-02-26 08:30:00,
2013-02-26 00:35:00,30.9,23.9,30.15,ESE,113,3.0,4.0,75,0.00,,---,0.00,VWS V13.00,2013-02-26 08:35:00,
2013-02-26 00:40:00,31.0,23.7,30.15,SSE,153,3.0,5.0,74,0.00,,---,0.00,VWS V13.00,2013-02-26 08:40:00,
2013-02-26 00:45:00,31.1,23.8,30.15,SE,130,1.0,6.0,74,0.00,,---,0.00,VWS V13.00,2013-02-26 08:45:00,
2013-02-26 00:50:00,31.1,23.8,30.16,SE,137,0.0,6.0,74,0.00,,---,0.00,VWS V13.00,2013-02-26 08:50:00,
2013-02-26 00:55:00,31.2,23.9,30.16,SE,140,3.0,6.0,74,0.00,,---,0.00,VWS V13.00,2013-02-26 08:55:00,
2013-02-26 01:00:00,31.3,24.0,30.17,SE,138,3.0,4.0,74,0.00,,---,0.00,VWS V13.00,2013-02-26 09:00:00,
2013-02-26 01:05:00,31.4,24.1,30.17,SE,144,1.0,6.0,74,0.00,,---,0.00,VWS V13.00,2013-02-26 09:05:00,
2013-02-26 01:10:00,31.4,24.1,30.16,SE,144,4.0,6.0,74,0.00,,---,0.00,VWS V13.00,2013-02-26 09:10:00,
2013-02-26 01:15:00,31.4,24.1,30.17,SE,136,5.0,6.0,74,0.00,,---,0.00,VWS V13.00,2013-02-26 09:15:00,
2013-02-26 01:20:00,31.3,24.0,30.17,SE,127,2.0,6.0,74,0.00,,---,0.00,VWS V13.00,2013-02-26 09:20:00,
2013-02-26 01:25:00,31.3,24.0,30.18,SE,142,1.0,6.0,74,0.00,,---,0.00,VWS V13.00,2013-02-26 09:25:00,
2013-02-26 01:30:00,31.1,23.8,30.18,SE,142,1.0,3.0,74,0.00,,---,0.00,VWS V13.00,2013-02-26 09:30:00,
2013-02-26 01:35:00,31.1,23.8,30.18,SE,142,1.0,3.0,74,0.00,,---,0.00,VWS V13.00,2013-02-26 09:35:00,
2013-02-26 01:40:00,31.0,23.7,30.18,SE,142,0.0,3.0,74,0.00,,---,0.00,VWS V13.00,2013-02-26 09:40:00,
2013-02-26 01:45:00,30.9,23.9,30.18,SE,142,1.0,3.0,75,0.00,,---,0.00,VWS V13.00,2013-02-26 09:45:00,
2013-02-26 01:50:00,30.8,23.8,30.18,SE,142,0.0,3.0,75,0.00,,---,0.00,VWS V13.00,2013-02-26 09:50:00,
2013-02-26 01:55:00,30.6,23.6,30.18,SE,142,0.0,3.0,75,0.00,,---,0.00,VWS V13.00,2013-02-26 09:55:00,
2013-02-26 02:00:00,30.5,23.5,30.18,SE,142,0.0,0.0,75,0.00,,---,0.00,VWS V13.00,2013-02-26 10:00:00,
2013-02-26 02:05:00,30.4,23.8,30.18,SE,142,1.0,1.0,76,0.00,,---,0.00,VWS V13.00,2013-02-26 10:05:00,
2013-02-26 02:10:00,30.2,23.6,30.19,SE,142,0.0,2.0,76,0.00,,---,0.00,VWS V13.00,2013-02-26 10:10:00,
2013-02-26 02:14:00,30.1,23.8,30.19,SE,142,0.0,2.0,77,0.00,,---,0.00,VWS V13.00,2013-02-26 10:14:00,
2013-02-26 02:19:00,29.9,23.6,30.19,SE,142,2.0,2.0,77,0.00,,---,0.00,VWS V13.00,2013-02-26 10:19:00,
2013-02-26 02:24:00,29.8,23.8,30.19,SE,142,0.0,2.0,78,0.00,,---,0.00,VWS V13.00,2013-02-26 10:24:00,
2013-02-26 02:29:00,29.7,24.0,30.19,SE,142,0.0,0.0,79,0.00,,---,0.00,VWS V13.00,2013-02-26 10:29:00,
2013-02-26 02:34:00,29.6,23.9,30.19,SE,142,0.0,2.0,79,0.00,,---,0.00,VWS V13.00,2013-02-26 10:34:00,
2013-02-26 02:39:00,29.4,23.7,30.20,SE,142,0.0,2.0,79,0.00,,---,0.00,VWS V13.00,2013-02-26 10:39:00,
2013-02-26 02:44:00,29.3,23.9,30.21,SE,142,0.0,2.0,80,0.00,,---,0.00,VWS V13.00,2013-02-26 10:44:00,
2013-02-26 02:49:00,29.2,23.8,30.21,SE,130,0.0,4.0,80,0.00,,---,0.00,VWS V13.00,2013-02-26 10:49:00,
2013-02-26 02:54:00,29.2,24.1,30.21,ESE,117,1.0,4.0,81,0.00,,---,0.00,VWS V13.00,2013-02-26 10:54:00,
2013-02-26 02:59:00,29.2,24.4,30.21,ESE,113,3.0,5.0,82,0.00,,---,0.00,VWS V13.00,2013-02-26 10:59:00,
2013-02-26 03:04:00,29.2,24.4,30.22,ESE,118,1.0,5.0,82,0.00,,---,0.00,VWS V13.00,2013-02-26 11:04:00,
2013-02-26 03:09:00,29.1,24.3,30.22,ESE,118,1.0,5.0,82,0.00,,---,0.00,VWS V13.00,2013-02-26 11:09:00,
2013-02-26 03:14:00,29.1,24.3,30.22,SSE,158,2.0,5.0,82,0.00,,---,0.00,VWS V13.00,2013-02-26 11:14:00,
2013-02-26 03:19:00,29.0,24.2,30.22,ESE,113,3.0,5.0,82,0.00,,---,0.00,VWS V13.00,2013-02-26 11:19:00,
2013-02-26 03:24:00,29.0,24.2,30.22,ESE,118,1.0,6.0,82,0.00,,---,0.00,VWS V13.00,2013-02-26 11:24:00,
2013-02-26 03:29:00,29.0,24.2,30.22,ESE,105,3.0,4.0,82,0.00,,---,0.00,VWS V13.00,2013-02-26 11:29:00,
2013-02-26 03:34:00,29.1,24.3,30.22,ESE,117,1.0,5.0,82,0.00,,---,0.00,VWS V13.00,2013-02-26 11:34:00,
2013-02-26 03:39:00,29.0,24.2,30.22,ESE,111,3.0,5.0,82,0.00,,---,0.00,VWS V13.00,2013-02-26 11:39:00,
2013-02-26 03:44:00,29.0,24.2,30.22,SE,136,1.0,6.0,82,0.00,,---,0.00,VWS V13.00,2013-02-26 11:44:00,
2013-02-26 03:49:00,29.0,24.2,30.23,ESE,119,3.0,6.0,82,0.00,,---,0.00,VWS V13.00,2013-02-26 11:49:00,
2013-02-26 03:54:00,28.9,24.1,30.23,ESE,103,2.0,6.0,82,0.00,,---,0.00,VWS V13.00,2013-02-26 11:54:00,
2013-02-26 03:59:00,28.8,24.0,30.23,ESE,110,1.0,2.0,82,0.00,,---,0.00,VWS V13.00,2013-02-26 11:59:00,
2013-02-26 04:04:00,28.8,24.3,30.23,ESE,114,1.0,5.0,83,0.00,,---,0.00,VWS V13.00,2013-02-26 12:04:00,
2013-02-26 04:09:00,28.8,24.3,30.23,ESE,114,2.0,6.0,83,0.00,,---,0.00,VWS V13.00,2013-02-26 12:09:00,
2013-02-26 04:14:00,28.7,24.2,30.24,ESE,117,1.0,6.0,83,0.00,,---,0.00,VWS V13.00,2013-02-26 12:14:00,
2013-02-26 04:19:00,28.5,24.0,30.24,ESE,117,2.0,6.0,83,0.00,,---,0.00,VWS V13.00,2013-02-26 12:19:00,
2013-02-26 04:24:00,28.4,23.9,30.24,ESE,117,0.0,6.0,83,0.00,,---,0.00,VWS V13.00,2013-02-26 12:24:00,
2013-02-26 04:29:00,28.2,23.7,30.25,ESE,117,1.0,2.0,83,0.00,,---,0.00,VWS V13.00,2013-02-26 12:29:00,
2013-02-26 04:34:00,28.1,23.9,30.25,ESE,117,1.0,3.0,84,0.00,,---,0.00,VWS V13.00,2013-02-26 12:34:00,
2013-02-26 04:39:00,28.0,23.8,30.25,ESE,117,1.0,3.0,84,0.00,,---,0.00,VWS V13.00,2013-02-26 12:39:00,
2013-02-26 04:44:00,27.9,23.7,30.25,ESE,117,0.0,3.0,84,0.00,,---,0.00,VWS V13.00,2013-02-26 12:44:00,
2013-02-26 04:49:00,27.8,23.6,30.26,ESE,117,0.0,3.0,84,0.00,,---,0.00,VWS V13.00,2013-02-26 12:49:00,
2013-02-26 04:54:00,27.8,23.6,30.26,ESE,117,0.0,3.0,84,0.00,,---,0.00,VWS V13.00,2013-02-26 12:54:00,
2013-02-26 04:59:00,27.7,23.8,30.26,ESE,117,0.0,0.0,85,0.00,,---,0.00,VWS V13.00,2013-02-26 12:59:00,
2013-02-26 05:04:00,27.6,23.7,30.27,ESE,117,3.0,4.0,85,0.00,,---,0.00,VWS V13.00,2013-02-26 13:04:00,
2013-02-26 05:09:00,27.7,24.1,30.27,ESE,119,3.0,5.0,86,0.00,,---,0.00,VWS V13.00,2013-02-26 13:09:00,
2013-02-26 05:14:00,27.7,24.1,30.26,ESE,119,1.0,5.0,86,0.00,,---,0.00,VWS V13.00,2013-02-26 13:14:00,
2013-02-26 05:19:00,27.8,24.2,30.26,ESE,119,2.0,5.0,86,0.00,,---,0.00,VWS V13.00,2013-02-26 13:19:00,
2013-02-26 05:24:00,27.8,24.2,30.26,ESE,117,0.0,5.0,86,0.00,,---,0.00,VWS V13.00,2013-02-26 13:24:00,
2013-02-26 05:29:00,27.7,24.1,30.27,ESE,117,2.0,2.0,86,0.00,,---,0.00,VWS V13.00,2013-02-26 13:29:00,
2013-02-26 05:34:00,27.7,24.1,30.27,ESE,117,1.0,2.0,86,0.00,,---,0.00,VWS V13.00,2013-02-26 13:34:00,
2013-02-26 05:39:00,27.7,24.1,30.27,SE,132,1.0,5.0,86,0.00,,---,0.00,VWS V13.00,2013-02-26 13:39:00,
2013-02-26 05:44:00,27.7,24.1,30.28,SE,132,0.0,5.0,86,0.00,,---,0.00,VWS V13.00,2013-02-26 13:44:00,
2013-02-26 05:49:00,27.7,24.1,30.28,SE,132,0.0,5.0,86,0.00,,---,0.00,VWS V13.00,2013-02-26 13:49:00,
2013-02-26 05:54:00,27.7,24.3,30.28,SE,132,1.0,5.0,87,0.00,,---,0.00,VWS V13.00,2013-02-26 13:54:00,
2013-02-26 05:59:00,27.7,24.3,30.29,ESE,115,2.0,3.0,87,0.00,,---,0.00,VWS V13.00,2013-02-26 13:59:00,
2013-02-26 06:04:00,27.7,24.3,30.29,ESE,114,0.0,3.0,87,0.00,,---,0.00,VWS V13.00,2013-02-26 14:04:00,
2013-02-26 06:09:00,27.7,24.3,30.29,ESE,115,0.0,3.0,87,0.00,,---,0.00,VWS V13.00,2013-02-26 14:09:00,
2013-02-26 06:14:00,27.7,24.3,30.29,ESE,115,0.0,3.0,87,0.00,,---,0.00,VWS V13.00,2013-02-26 14:14:00,
2013-02-26 06:19:00,27.7,24.3,30.29,ESE,114,0.0,3.0,87,0.00,,---,0.00,VWS V13.00,2013-02-26 14:19:00,
2013-02-26 06:24:00,27.6,24.2,30.30,ESE,114,0.0,3.0,87,0.00,,---,0.00,VWS V13.00,2013-02-26 14:24:00,
2013-02-26 06:29:00,27.6,24.2,30.29,ESE,115,0.0,0.0,87,0.00,,---,0.00,VWS V13.00,2013-02-26 14:29:00,
2013-02-26 06:34:00,27.6,24.2,30.30,ESE,115,0.0,2.0,87,0.00,,---,0.00,VWS V13.00,2013-02-26 14:34:00,
2013-02-26 06:39:00,27.6,24.2,30.30,ESE,115,0.0,2.0,87,0.00,,---,0.00,VWS V13.00,2013-02-26 14:39:00,
2013-02-26 06:44:00,27.6,24.2,30.30,ESE,115,0.0,2.0,87,0.00,,---,0.00,VWS V13.00,2013-02-26 14:44:00,
2013-02-26 06:49:00,27.6,24.5,30.30,ESE,115,0.0,2.0,88,0.00,,---,0.00,VWS V13.00,2013-02-26 14:49:00,
2013-02-26 06:54:00,27.6,24.5,30.30,ESE,115,0.0,2.0,88,0.00,,---,0.00,VWS V13.00,2013-02-26 14:54:00,
2013-02-26 06:59:00,27.5,24.4,30.31,ESE,114,0.0,1.0,88,0.00,,---,0.00,VWS V13.00,2013-02-26 14:59:00,
2013-02-26 07:04:00,27.5,24.4,30.31,ESE,114,0.0,1.0,88,0.00,,---,0.00,VWS V13.00,2013-02-26 15:04:00,
2013-02-26 07:09:00,27.5,24.4,30.31,ESE,115,0.0,1.0,88,0.00,,---,0.00,VWS V13.00,2013-02-26 15:09:00,
2013-02-26 07:14:00,27.4,24.3,30.31,ESE,115,0.0,2.0,88,0.00,,---,0.00,VWS V13.00,2013-02-26 15:14:00,
2013-02-26 07:19:00,27.5,24.4,30.32,ESE,114,2.0,2.0,88,0.00,,---,0.00,VWS V13.00,2013-02-26 15:19:00,
2013-02-26 07:24:00,27.5,24.4,30.32,ESE,115,1.0,3.0,88,0.00,,---,0.00,VWS V13.00,2013-02-26 15:24:00,
2013-02-26 07:29:00,27.6,24.5,30.32,ESE,115,2.0,2.0,88,0.00,,---,0.00,VWS V13.00,2013-02-26 15:29:00,
2013-02-26 07:34:00,27.7,24.6,30.32,ESE,115,0.0,2.0,88,0.00,,---,0.00,VWS V13.00,2013-02-26 15:34:00,
2013-02-26 07:39:00,27.9,24.8,30.33,ESE,114,0.0,2.0,88,0.00,,---,0.00,VWS V13.00,2013-02-26 15:39:00,
2013-02-26 07:44:00,28.0,24.9,30.33,ESE,114,0.0,2.0,88,0.00,,---,0.00,VWS V13.00,2013-02-26 15:44:00,
2013-02-26 07:49:00,28.2,25.1,30.33,ESE,115,2.0,3.0,88,0.00,,---,0.00,VWS V13.00,2013-02-26 15:49:00,
2013-02-26 07:54:00,28.4,25.3,30.33,ESE,115,1.0,3.0,88,0.00,,---,0.00,VWS V13.00,2013-02-26 15:54:00,
2013-02-26 07:59:00,28.5,25.4,30.33,ESE,114,1.0,3.0,88,0.00,,---,0.00,VWS V13.00,2013-02-26 15:59:00,
2013-02-26 08:04:00,28.7,25.3,30.33,ESE,114,0.0,3.0,87,0.00,,---,0.00,VWS V13.00,2013-02-26 16:04:00,
2013-02-26 08:09:00,28.8,25.4,30.33,ESE,115,2.0,3.0,87,0.00,,---,0.00,VWS V13.00,2013-02-26 16:09:00,
2013-02-26 08:14:00,28.9,25.5,30.34,ESE,115,1.0,3.0,87,0.00,,---,0.00,VWS V13.00,2013-02-26 16:14:00,
2013-02-26 08:19:00,29.0,25.6,30.34,ESE,115,1.0,3.0,87,0.00,,---,0.00,VWS V13.00,2013-02-26 16:19:00,
2013-02-26 08:24:00,29.2,25.8,30.34,ESE,115,1.0,3.0,87,0.00,,---,0.00,VWS V13.00,2013-02-26 16:24:00,
2013-02-26 08:29:00,29.4,26.0,30.34,ESE,114,1.0,1.0,87,0.00,,---,0.00,VWS V13.00,2013-02-26 16:29:00,
2013-02-26 08:34:00,29.6,25.9,30.34,ESE,115,0.0,3.0,86,0.00,,---,0.00,VWS V13.00,2013-02-26 16:34:00,
2013-02-26 08:39:00,29.8,26.1,30.34,ESE,109,1.0,4.0,86,0.00,,---,0.00,VWS V13.00,2013-02-26 16:39:00,
2013-02-26 08:44:00,30.0,26.0,30.34,SSE,147,0.0,5.0,85,0.00,,---,0.00,VWS V13.00,2013-02-26 16:44:00,
2013-02-26 08:49:00,30.2,26.2,30.34,SSE,153,0.0,5.0,85,0.00,,---,0.00,VWS V13.00,2013-02-26 16:49:00,
2013-02-26 08:54:00,30.4,26.4,30.34,ESE,117,0.0,5.0,85,0.00,,---,0.00,VWS V13.00,2013-02-26 16:54:00,
2013-02-26 08:59:00,30.6,26.6,30.35,SSE,165,3.0,5.0,85,0.00,,---,0.00,VWS V13.00,2013-02-26 16:59:00,
2013-02-26 09:04:00,30.8,26.5,30.35,SE,134,2.0,5.0,84,0.00,,---,0.00,VWS V13.00,2013-02-26 17:04:00,
2013-02-26 09:09:00,31.0,26.7,30.34,ESE,118,3.0,5.0,84,0.00,,---,0.00,VWS V13.00,2013-02-26 17:09:00,
2013-02-26 09:14:00,31.2,26.6,30.35,ESE,102,1.0,5.0,83,0.00,,---,0.00,VWS V13.00,2013-02-26 17:14:00,
2013-02-26 09:19:00,31.4,26.5,30.35,SE,125,7.0,7.0,82,0.00,,---,0.00,VWS V13.00,2013-02-26 17:19:00,
2013-02-26 09:24:00,31.5,26.6,30.34,ESE,106,2.0,7.0,82,0.00,,---,0.00,VWS V13.00,2013-02-26 17:24:00,
2013-02-26 09:29:00,31.6,26.5,30.34,ESE,111,3.0,7.0,81,0.00,,---,0.00,VWS V13.00,2013-02-26 17:29:00,
2013-02-26 09:34:00,31.8,26.6,30.35,ESE,109,3.0,7.0,81,0.00,,---,0.00,VWS V13.00,2013-02-26 17:34:00,
2013-02-26 09:39:00,32.0,26.8,30.35,SE,128,2.0,9.0,81,0.00,,---,0.00,VWS V13.00,2013-02-26 17:39:00,
2013-02-26 09:44:00,32.2,26.7,30.35,ESE,122,3.0,9.0,80,0.00,,---,0.00,VWS V13.00,2013-02-26 17:44:00,
2013-02-26 09:49:00,32.4,26.9,30.35,ESE,107,3.0,9.0,80,0.00,,---,0.00,VWS V13.00,2013-02-26 17:49:00,
2013-02-26 09:54:00,32.6,27.1,30.35,ESE,115,3.0,9.0,80,0.00,,---,0.00,VWS V13.00,2013-02-26 17:54:00,
2013-02-26 09:59:00,32.8,27.0,30.35,SE,141,3.0,3.0,79,0.00,,---,0.00,VWS V13.00,2013-02-26 17:59:00,
2013-02-26 10:04:00,33.1,27.0,30.35,SSE,153,3.0,11.0,78,0.00,,---,0.00,VWS V13.00,2013-02-26 18:04:00,
2013-02-26 10:09:00,33.3,27.2,30.35,SE,144,6.0,11.0,78,0.00,,---,0.00,VWS V13.00,2013-02-26 18:09:00,
2013-02-26 10:14:00,33.7,27.6,30.35,SSE,153,4.0,11.0,78,0.00,,---,0.00,VWS V13.00,2013-02-26 18:14:00,
2013-02-26 10:19:00,33.9,27.5,30.35,South,171,4.0,11.0,77,0.00,,---,0.00,VWS V13.00,2013-02-26 18:19:00,
2013-02-26 10:24:00,34.0,27.6,30.35,SE,136,4.0,11.0,77,0.00,,---,0.00,VWS V13.00,2013-02-26 18:24:00,
2013-02-26 10:29:00,34.4,28.0,30.35,SE,146,2.0,4.0,77,0.00,,---,0.00,VWS V13.00,2013-02-26 18:29:00,
2013-02-26 10:34:00,34.4,27.3,30.35,ESE,107,2.0,13.0,75,0.00,,---,0.00,VWS V13.00,2013-02-26 18:34:00,
2013-02-26 10:39:00,34.6,27.5,30.35,SE,130,3.0,13.0,75,0.00,,---,0.00,VWS V13.00,2013-02-26 18:39:00,
2013-02-26 10:44:00,34.8,27.7,30.35,ESE,109,3.0,13.0,75,0.00,,---,0.00,VWS V13.00,2013-02-26 18:44:00,
2013-02-26 10:49:00,34.9,27.5,30.35,ENE,65,3.0,13.0,74,0.00,,---,0.00,VWS V13.00,2013-02-26 18:49:00,
2013-02-26 10:54:00,35.1,28.0,30.35,SE,137,2.0,13.0,75,0.00,,---,0.00,VWS V13.00,2013-02-26 18:54:00,
2013-02-26 10:59:00,35.7,28.6,30.35,South,178,3.0,6.0,75,0.00,,---,0.00,VWS V13.00,2013-02-26 18:59:00,
2013-02-26 11:04:00,36.5,29.0,30.34,SE,129,5.0,7.0,74,0.00,,---,0.00,VWS V13.00,2013-02-26 19:04:00,
2013-02-26 11:09:00,37.1,28.2,30.34,ESE,109,5.0,7.0,70,0.00,,---,0.00,VWS V13.00,2013-02-26 19:09:00,
2013-02-26 11:14:00,37.3,28.4,30.34,East,98,2.0,7.0,70,0.00,,---,0.00,VWS V13.00,2013-02-26 19:14:00,
2013-02-26 11:19:00,37.7,29.2,30.34,SE,140,9.0,9.0,71,0.00,,---,0.00,VWS V13.00,2013-02-26 19:19:00,
2013-02-26 11:24:00,37.9,28.6,30.34,SSE,149,5.0,11.0,69,0.00,,---,0.00,VWS V13.00,2013-02-26 19:24:00,
2013-02-26 11:29:00,37.7,28.5,30.34,ESE,118,2.0,2.0,69,0.00,,---,0.00,VWS V13.00,2013-02-26 19:29:00,
2013-02-26 11:34:00,37.8,29.3,30.34,ESE,114,0.0,4.0,71,0.00,,---,0.00,VWS V13.00,2013-02-26 19:34:00,
2013-02-26 11:39:00,38.0,28.4,30.34,SE,124,3.0,7.0,68,0.00,,---,0.00,VWS V13.00,2013-02-26 19:39:00,
2013-02-26 11:44:00,38.4,29.1,30.34,ESE,113,0.0,7.0,69,0.00,,---,0.00,VWS V13.00,2013-02-26 19:44:00,
2013-02-26 11:49:00,38.7,29.4,30.33,SE,134,3.0,7.0,69,0.00,,---,0.00,VWS V13.00,2013-02-26 19:49:00,
2013-02-26 11:54:00,39.0,29.0,30.33,ESE,119,0.0,7.0,67,0.00,,---,0.00,VWS V13.00,2013-02-26 19:54:00,
2013-02-26 11:59:00,39.3,29.3,30.33,ESE,119,2.0,3.0,67,0.00,,---,0.00,VWS V13.00,2013-02-26 19:59:00,
2013-02-26 12:04:00,40.1,30.8,30.33,ESE,119,2.0,3.0,69,0.00,,---,0.00,VWS V13.00,2013-02-26 20:04:00,
2013-02-26 12:09:00,40.0,29.6,30.33,ESE,107,1.0,3.0,66,0.00,,---,0.00,VWS V13.00,2013-02-26 20:09:00,
2013-02-26 12:14:00,39.7,29.3,30.33,East,91,1.0,4.0,66,0.00,,---,0.00,VWS V13.00,2013-02-26 20:14:00,
2013-02-26 12:19:00,39.9,28.3,30.33,SSE,161,4.0,11.0,63,0.00,,---,0.00,VWS V13.00,2013-02-26 20:19:00,
2013-02-26 12:24:00,41.1,29.5,30.32,SE,140,2.0,11.0,63,0.00,,---,0.00,VWS V13.00,2013-02-26 20:24:00,
2013-02-26 12:29:00,41.4,28.6,30.32,SSE,168,7.0,11.0,60,0.00,,---,0.00,VWS V13.00,2013-02-26 20:29:00,
2013-02-26 12:34:00,41.3,28.5,30.32,WSW,242,2.0,11.0,60,0.00,,---,0.00,VWS V13.00,2013-02-26 20:34:00,
2013-02-26 12:39:00,42.3,29.8,30.32,ESE,110,1.0,11.0,61,0.00,,---,0.00,VWS V13.00,2013-02-26 20:39:00,
2013-02-26 12:44:00,43.5,31.0,30.31,SE,146,4.0,11.0,61,0.00,,---,0.00,VWS V13.00,2013-02-26 20:44:00,
2013-02-26 12:49:00,42.8,28.6,30.31,SE,137,6.0,11.0,57,0.00,,---,0.00,VWS V13.00,2013-02-26 20:49:00,
2013-02-26 12:54:00,42.2,28.9,30.32,South,186,6.0,13.0,59,0.00,,---,0.00,VWS V13.00,2013-02-26 20:54:00,
2013-02-26 12:59:00,41.9,28.6,30.32,ESE,120,2.0,5.0,59,0.00,,---,0.00,VWS V13.00,2013-02-26 20:59:00,
2013-02-26 13:04:00,41.8,29.4,30.32,SSW,199,12.0,13.0,61,0.00,,---,0.00,VWS V13.00,2013-02-26 21:04:00,
2013-02-26 13:09:00,42.5,28.8,30.32,SE,143,4.0,14.0,58,0.00,,---,0.00,VWS V13.00,2013-02-26 21:09:00,
2013-02-26 13:14:00,42.2,28.1,30.31,SE,140,10.0,14.0,57,0.00,,---,0.00,VWS V13.00,2013-02-26 21:14:00,
2013-02-26 13:19:00,41.9,28.2,30.31,SSE,160,1.0,14.0,58,0.00,,---,0.00,VWS V13.00,2013-02-26 21:19:00,
2013-02-26 13:24:00,41.8,28.1,30.31,SSE,168,3.0,14.0,58,0.00,,---,0.00,VWS V13.00,2013-02-26 21:24:00,
2013-02-26 13:29:00,41.6,27.9,30.31,SSW,192,8.0,10.0,58,0.00,,---,0.00,VWS V13.00,2013-02-26 21:29:00,
2013-02-26 13:34:00,41.4,27.8,30.31,SSE,160,5.0,11.0,58,0.00,,---,0.00,VWS V13.00,2013-02-26 21:34:00,
2013-02-26 13:39:00,41.1,27.9,30.31,South,171,4.0,11.0,59,0.00,,---,0.00,VWS V13.00,2013-02-26 21:39:00,
2013-02-26 13:44:00,41.1,27.9,30.31,ESE,113,3.0,11.0,59,0.00,,---,0.00,VWS V13.00,2013-02-26 21:44:00,
2013-02-26 13:49:00,40.9,27.7,30.31,SE,132,6.0,11.0,59,0.00,,---,0.00,VWS V13.00,2013-02-26 21:49:00,
2013-02-26 13:54:00,40.9,27.7,30.31,SSE,153,4.0,11.0,59,0.00,,---,0.00,VWS V13.00,2013-02-26 21:54:00,
2013-02-26 13:59:00,40.9,27.7,30.31,SE,138,4.0,5.0,59,0.00,,---,0.00,VWS V13.00,2013-02-26 21:59:00,
2013-02-26 14:04:00,40.9,27.7,30.31,South,190,4.0,7.0,59,0.00,,---,0.00,VWS V13.00,2013-02-26 22:04:00,
2013-02-26 14:09:00,41.2,28.4,30.31,SE,144,0.0,7.0,60,0.00,,---,0.00,VWS V13.00,2013-02-26 22:09:00,
2013-02-26 14:14:00,42.7,29.4,30.30,East,88,0.0,7.0,59,0.00,,---,0.00,VWS V13.00,2013-02-26 22:14:00,
2013-02-26 14:19:00,42.8,28.2,30.31,SSE,149,4.0,7.0,56,0.00,,---,0.00,VWS V13.00,2013-02-26 22:19:00,
2013-02-26 14:24:00,42.7,28.1,30.31,South,176,6.0,7.0,56,0.00,,---,0.00,VWS V13.00,2013-02-26 22:24:00,
2013-02-26 14:29:00,42.4,27.4,30.31,SE,140,9.0,9.0,55,0.00,,---,0.00,VWS V13.00,2013-02-26 22:29:00,
2013-02-26 14:34:00,42.2,27.2,30.31,SE,135,6.0,9.0,55,0.00,,---,0.00,VWS V13.00,2013-02-26 22:34:00,
2013-02-26 14:39:00,42.0,27.0,30.31,SSE,148,2.0,9.0,55,0.00,,---,0.00,VWS V13.00,2013-02-26 22:39:00,
2013-02-26 14:44:00,41.9,26.9,30.31,SSE,148,0.0,9.0,55,0.00,,---,0.00,VWS V13.00,2013-02-26 22:44:00,
2013-02-26 14:49:00,41.8,27.3,30.31,ESE,118,0.0,9.0,56,0.00,,---,0.00,VWS V13.00,2013-02-26 22:49:00,
2013-02-26 14:54:00,41.7,27.2,30.32,SSE,165,3.0,9.0,56,0.00,,---,0.00,VWS V13.00,2013-02-26 22:54:00,
2013-02-26 14:59:00,41.8,27.3,30.31,SSE,165,2.0,2.0,56,0.00,,---,0.00,VWS V13.00,2013-02-26 22:59:00,
2013-02-26 15:04:00,41.8,26.8,30.32,SE,126,0.0,4.0,55,0.00,,---,0.00,VWS V13.00,2013-02-26 23:04:00,
2013-02-26 15:09:00,41.8,26.8,30.32,SSE,163,2.0,7.0,55,0.00,,---,0.00,VWS V13.00,2013-02-26 23:09:00,
2013-02-26 15:14:00,41.7,26.7,30.32,South,179,0.0,7.0,55,0.00,,---,0.00,VWS V13.00,2013-02-26 23:14:00,
2013-02-26 15:19:00,41.7,26.7,30.32,South,169,0.0,7.0,55,0.00,,---,0.00,VWS V13.00,2013-02-26 23:19:00,
2013-02-26 15:24:00,41.7,27.2,30.32,South,169,0.0,7.0,56,0.00,,---,0.00,VWS V13.00,2013-02-26 23:24:00,
2013-02-26 15:29:00,41.8,26.8,30.31,South,169,2.0,2.0,55,0.00,,---,0.00,VWS V13.00,2013-02-26 23:29:00,
2013-02-26 15:34:00,41.8,26.8,30.31,SSE,158,2.0,5.0,55,0.00,,---,0.00,VWS V13.00,2013-02-26 23:34:00,
2013-02-26 15:39:00,41.8,26.8,30.31,SSE,158,0.0,5.0,55,0.00,,---,0.00,VWS V13.00,2013-02-26 23:39:00,
2013-02-26 15:44:00,41.8,26.4,30.31,SSE,157,3.0,5.0,54,0.00,,---,0.00,VWS V13.00,2013-02-26 23:44:00,
2013-02-26 15:49:00,41.8,26.4,30.31,SSE,158,3.0,5.0,54,0.00,,---,0.00,VWS V13.00,2013-02-26 23:49:00,
2013-02-26 15:54:00,41.8,26.8,30.31,SSE,158,1.0,5.0,55,0.00,,---,0.00,VWS V13.00,2013-02-26 23:54:00,
2013-02-26 15:59:00,41.8,26.4,30.31,SSE,159,1.0,5.0,54,0.00,,---,0.00,VWS V13.00,2013-02-26 23:59:00,
2013-02-26 16:04:00,41.9,26.5,30.31,South,178,6.0,6.0,54,0.00,,---,0.00,VWS V13.00,2013-02-27 00:04:00,
2013-02-26 16:09:00,41.9,26.0,30.31,SSE,157,6.0,8.0,53,0.00,,---,0.00,VWS V13.00,2013-02-27 00:09:00,
2013-02-26 16:14:00,41.8,26.4,30.31,SSE,165,0.0,8.0,54,0.00,,---,0.00,VWS V13.00,2013-02-27 00:14:00,
2013-02-26 16:19:00,41.8,25.9,30.31,SE,130,3.0,8.0,53,0.00,,---,0.00,VWS V13.00,2013-02-27 00:19:00,
2013-02-26 16:24:00,41.7,25.9,30.31,SE,142,5.0,8.0,53,0.00,,---,0.00,VWS V13.00,2013-02-27 00:24:00,
2013-02-26 16:29:00,41.6,25.8,30.31,South,187,2.0,8.0,53,0.00,,---,0.00,VWS V13.00,2013-02-27 00:29:00,
2013-02-26 16:34:00,41.5,26.1,30.31,South,187,2.0,5.0,54,0.00,,---,0.00,VWS V13.00,2013-02-27 00:34:00,
2013-02-26 16:39:00,41.4,26.0,30.31,South,187,0.0,5.0,54,0.00,,---,0.00,VWS V13.00,2013-02-27 00:39:00,
2013-02-26 16:44:00,41.2,25.8,30.31,SSE,155,0.0,5.0,54,0.00,,---,0.00,VWS V13.00,2013-02-27 00:44:00,
2013-02-26 16:49:00,41.1,25.7,30.31,SSW,196,2.0,5.0,54,0.00,,---,0.00,VWS V13.00,2013-02-27 00:49:00,
2013-02-26 16:54:00,41.0,26.1,30.32,SSW,199,1.0,5.0,55,0.00,,---,0.00,VWS V13.00,2013-02-27 00:54:00,
2013-02-26 16:59:00,40.7,25.8,30.31,SSW,201,2.0,5.0,55,0.00,,---,0.00,VWS V13.00,2013-02-27 00:59:00,
2013-02-26 17:04:00,40.6,25.7,30.31,SSW,201,1.0,2.0,55,0.00,,---,0.00,VWS V13.00,2013-02-27 01:04:00,
2013-02-26 17:09:00,40.3,25.9,30.31,SSW,201,0.0,3.0,56,0.00,,---,0.00,VWS V13.00,2013-02-27 01:09:00,
2013-02-26 17:14:00,40.1,25.7,30.31,SSW,200,0.0,3.0,56,0.00,,---,0.00,VWS V13.00,2013-02-27 01:14:00,
2013-02-26 17:19:00,39.8,25.4,30.31,SSW,200,0.0,3.0,56,0.00,,---,0.00,VWS V13.00,2013-02-27 01:19:00,
2013-02-26 17:24:00,39.7,25.7,30.31,SSW,201,0.0,3.0,57,0.00,,---,0.00,VWS V13.00,2013-02-27 01:24:00,
2013-02-26 17:29:00,39.4,25.5,30.31,SSW,201,1.0,3.0,57,0.00,,---,0.00,VWS V13.00,2013-02-27 01:29:00,
2013-02-26 17:34:00,39.3,25.8,30.31,SSW,201,0.0,0.0,58,0.00,,---,0.00,VWS V13.00,2013-02-27 01:34:00,
2013-02-26 17:39:00,39.0,25.5,30.31,SSW,200,0.0,0.0,58,0.00,,---,0.00,VWS V13.00,2013-02-27 01:39:00,
2013-02-26 17:44:00,38.8,25.7,30.31,SSW,201,0.0,0.0,59,0.00,,---,0.00,VWS V13.00,2013-02-27 01:44:00,
2013-02-26 17:49:00,38.7,26.0,30.31,SSW,200,0.0,0.0,60,0.00,,---,0.00,VWS V13.00,2013-02-27 01:49:00,
2013-02-26 17:54:00,38.4,25.7,30.31,SSW,200,0.0,0.0,60,0.00,,---,0.00,VWS V13.00,2013-02-27 01:54:00,
2013-02-26 17:59:00,38.1,25.9,30.31,SSW,200,0.0,0.0,61,0.00,,---,0.00,VWS V13.00,2013-02-27 01:59:00,
2013-02-26 18:04:00,37.9,25.7,30.31,SSW,201,0.0,0.0,61,0.00,,---,0.00,VWS V13.00,2013-02-27 02:04:00,
2013-02-26 18:09:00,37.6,25.4,30.31,SSW,201,0.0,0.0,61,0.00,,---,0.00,VWS V13.00,2013-02-27 02:09:00,
2013-02-26 18:14:00,37.3,25.9,30.32,SSW,201,0.0,1.0,63,0.00,,---,0.00,VWS V13.00,2013-02-27 02:14:00,
2013-02-26 18:20:00,36.9,26.2,30.32,SSW,201,0.0,2.0,65,0.00,,---,0.00,VWS V13.00,2013-02-27 02:20:00,
2013-02-26 18:25:00,36.5,26.2,30.32,SSW,201,1.0,2.0,66,0.00,,---,0.00,VWS V13.00,2013-02-27 02:25:00,
2013-02-26 18:30:00,36.2,26.3,30.32,SSW,201,0.0,1.0,67,0.00,,---,0.00,VWS V13.00,2013-02-27 02:30:00,
2013-02-26 18:35:00,35.9,26.4,30.32,SSW,201,1.0,2.0,68,0.00,,---,0.00,VWS V13.00,2013-02-27 02:35:00,
2013-02-26 18:40:00,35.6,26.5,30.32,SSW,201,1.0,2.0,69,0.00,,---,0.00,VWS V13.00,2013-02-27 02:40:00,
2013-02-26 18:45:00,35.3,26.2,30.32,SSW,201,1.0,2.0,69,0.00,,---,0.00,VWS V13.00,2013-02-27 02:45:00,
2013-02-26 18:50:00,35.1,26.3,30.33,SSW,201,2.0,2.0,70,0.00,,---,0.00,VWS V13.00,2013-02-27 02:50:00,
2013-02-26 18:55:00,34.8,26.0,30.32,SSW,201,0.0,2.0,70,0.00,,---,0.00,VWS V13.00,2013-02-27 02:55:00,
2013-02-26 19:00:00,34.5,26.1,30.32,SSW,201,0.0,0.0,71,0.00,,---,0.00,VWS V13.00,2013-02-27 03:00:00,
2013-02-26 19:05:00,34.4,26.0,30.32,SSW,201,1.0,2.0,71,0.00,,---,0.00,VWS V13.00,2013-02-27 03:05:00,
2013-02-26 19:10:00,34.3,26.2,30.32,SSW,201,2.0,2.0,72,0.00,,---,0.00,VWS V13.00,2013-02-27 03:10:00,
2013-02-26 19:15:00,34.0,25.9,30.32,SSW,200,0.0,2.0,72,0.00,,---,0.00,VWS V13.00,2013-02-27 03:15:00,
2013-02-26 19:20:00,33.9,26.2,30.32,SSW,200,1.0,2.0,73,0.00,,---,0.00,VWS V13.00,2013-02-27 03:20:00,
2013-02-26 19:25:00,33.7,26.0,30.32,SSW,200,0.0,2.0,73,0.00,,---,0.00,VWS V13.00,2013-02-27 03:25:00,
2013-02-26 19:30:00,33.6,26.2,30.32,SSW,201,0.0,0.0,74,0.00,,---,0.00,VWS V13.00,2013-02-27 03:30:00,
2013-02-26 19:35:00,33.4,26.0,30.32,SSW,201,0.0,1.0,74,0.00,,---,0.00,VWS V13.00,2013-02-27 03:35:00,
2013-02-26 19:40:00,33.4,26.3,30.32,SSW,201,0.0,1.0,75,0.00,,---,0.00,VWS V13.00,2013-02-27 03:40:00,
2013-02-26 19:45:00,33.3,26.2,30.32,SSW,201,0.0,1.0,75,0.00,,---,0.00,VWS V13.00,2013-02-27 03:45:00,
2013-02-26 19:50:00,33.2,26.5,30.32,SSW,201,2.0,2.0,76,0.00,,---,0.00,VWS V13.00,2013-02-27 03:50:00,
2013-02-26 19:55:00,33.0,26.3,30.32,SSW,201,1.0,2.0,76,0.00,,---,0.00,VWS V13.00,2013-02-27 03:55:00,
2013-02-26 20:00:00,32.9,26.2,30.31,SSW,201,0.0,2.0,76,0.00,,---,0.00,VWS V13.00,2013-02-27 04:00:00,
2013-02-26 20:05:00,32.7,26.3,30.31,SSW,201,1.0,2.0,77,0.00,,---,0.00,VWS V13.00,2013-02-27 04:05:00,
2013-02-26 20:10:00,32.5,26.1,30.31,SSW,200,0.0,2.0,77,0.00,,---,0.00,VWS V13.00,2013-02-27 04:10:00,
2013-02-26 20:15:00,32.4,26.3,30.31,SSW,201,0.0,2.0,78,0.00,,---,0.00,VWS V13.00,2013-02-27 04:15:00,
2013-02-26 20:20:00,32.3,26.2,30.31,SSW,200,0.0,2.0,78,0.00,,---,0.00,VWS V13.00,2013-02-27 04:20:00,
2013-02-26 20:25:00,32.3,26.2,30.31,SSW,200,0.0,2.0,78,0.00,,---,0.00,VWS V13.00,2013-02-27 04:25:00,
2013-02-26 20:30:00,32.2,26.4,30.31,SSW,201,0.0,0.0,79,0.00,,---,0.00,VWS V13.00,2013-02-27 04:30:00,
2013-02-26 20:35:00,32.1,26.3,30.31,SSW,201,0.0,0.0,79,0.00,,---,0.00,VWS V13.00,2013-02-27 04:35:00,
2013-02-26 20:40:00,32.0,26.2,30.30,SSW,201,0.0,0.0,79,0.00,,---,0.00,VWS V13.00,2013-02-27 04:40:00,
2013-02-26 20:45:00,32.0,26.2,30.30,SSW,201,0.0,1.0,79,0.00,,---,0.00,VWS V13.00,2013-02-27 04:45:00,
2013-02-26 20:50:00,32.0,26.2,30.31,SSW,200,0.0,2.0,79,0.00,,---,0.00,VWS V13.00,2013-02-27 04:50:00,
2013-02-26 20:55:00,32.0,26.2,30.31,SSW,201,0.0,2.0,79,0.00,,---,0.00,VWS V13.00,2013-02-27 04:55:00,
2013-02-26 21:00:00,32.0,26.5,30.30,SSW,200,1.0,2.0,80,0.00,,---,0.00,VWS V13.00,2013-02-27 05:00:00,
2013-02-26 21:05:00,32.0,26.5,30.30,SSW,201,2.0,2.0,80,0.00,,---,0.00,VWS V13.00,2013-02-27 05:05:00,
2013-02-26 21:10:00,31.9,26.1,30.30,SSW,200,1.0,2.0,79,0.00,,---,0.00,VWS V13.00,2013-02-27 05:10:00,
2013-02-26 21:15:00,31.7,26.2,30.30,SSW,201,1.0,2.0,80,0.00,,---,0.00,VWS V13.00,2013-02-27 05:15:00,
2013-02-26 21:20:00,31.6,26.1,30.30,SSW,201,2.0,2.0,80,0.00,,---,0.00,VWS V13.00,2013-02-27 05:20:00,
2013-02-26 21:25:00,31.5,26.0,30.30,SSW,201,1.0,2.0,80,0.00,,---,0.00,VWS V13.00,2013-02-27 05:25:00,
2013-02-26 21:30:00,31.3,25.9,30.30,SSW,201,1.0,2.0,80,0.00,,---,0.00,VWS V13.00,2013-02-27 05:30:00,
2013-02-26 21:35:00,31.2,26.1,30.30,SSW,200,1.0,2.0,81,0.00,,---,0.00,VWS V13.00,2013-02-27 05:35:00,
2013-02-26 21:40:00,31.1,26.0,30.30,SSW,200,1.0,3.0,81,0.00,,---,0.00,VWS V13.00,2013-02-27 05:40:00,
2013-02-26 21:45:00,31.0,26.2,30.30,SSW,201,2.0,3.0,82,0.00,,---,0.00,VWS V13.00,2013-02-27 05:45:00,
2013-02-26 21:50:00,30.9,26.1,30.30,SSW,201,1.0,3.0,82,0.00,,---,0.00,VWS V13.00,2013-02-27 05:50:00,
2013-02-26 21:55:00,30.7,25.9,30.30,SSW,201,1.0,3.0,82,0.00,,---,0.00,VWS V13.00,2013-02-27 05:55:00,
2013-02-26 22:00:00,30.6,25.8,30.29,SSW,201,2.0,2.0,82,0.00,,---,0.00,VWS V13.00,2013-02-27 06:00:00,
2013-02-26 22:05:00,30.4,25.6,30.29,SSW,200,0.0,2.0,82,0.00,,---,0.00,VWS V13.00,2013-02-27 06:05:00,
2013-02-26 22:10:00,30.3,25.8,30.29,SSW,201,2.0,2.0,83,0.00,,---,0.00,VWS V13.00,2013-02-27 06:10:00,
2013-02-26 22:15:00,30.2,25.4,30.29,SSW,201,1.0,2.0,82,0.00,,---,0.00,VWS V13.00,2013-02-27 06:15:00,
2013-02-26 22:20:00,30.1,25.6,30.29,SSW,201,2.0,3.0,83,0.00,,---,0.00,VWS V13.00,2013-02-27 06:20:00,
2013-02-26 22:25:00,29.9,25.4,30.28,SSW,200,1.0,3.0,83,0.00,,---,0.00,VWS V13.00,2013-02-27 06:25:00,
2013-02-26 22:30:00,29.8,25.3,30.28,SSW,201,1.0,2.0,83,0.00,,---,0.00,VWS V13.00,2013-02-27 06:30:00,
2013-02-26 22:35:00,29.7,25.2,30.28,SSW,201,1.0,3.0,83,0.00,,---,0.00,VWS V13.00,2013-02-27 06:35:00,
2013-02-26 22:40:00,29.6,25.1,30.29,SSW,201,3.0,3.0,83,0.00,,---,0.00,VWS V13.00,2013-02-27 06:40:00,
2013-02-26 22:45:00,29.4,25.2,30.29,SSW,200,2.0,3.0,84,0.00,,---,0.00,VWS V13.00,2013-02-27 06:45:00,
2013-02-26 22:50:00,29.2,25.0,30.29,SSW,201,2.0,3.0,84,0.00,,---,0.00,VWS V13.00,2013-02-27 06:50:00,
2013-02-26 22:55:00,29.1,24.9,30.29,SSW,201,1.0,3.0,84,0.00,,---,0.00,VWS V13.00,2013-02-27 06:55:00,
2013-02-26 23:00:00,28.9,24.7,30.28,SSW,200,1.0,2.0,84,0.00,,---,0.00,VWS V13.00,2013-02-27 07:00:00,
2013-02-26 23:05:00,28.9,25.0,30.28,SSW,201,1.0,2.0,85,0.00,,---,0.00,VWS V13.00,2013-02-27 07:05:00,
2013-02-26 23:10:00,28.8,24.9,30.28,SSW,201,2.0,2.0,85,0.00,,---,0.00,VWS V13.00,2013-02-27 07:10:00,
2013-02-26 23:15:00,28.7,24.8,30.28,SSW,200,3.0,3.0,85,0.00,,---,0.00,VWS V13.00,2013-02-27 07:15:00,
2013-02-26 23:20:00,28.5,24.6,30.28,SSW,200,2.0,3.0,85,0.00,,---,0.00,VWS V13.00,2013-02-27 07:20:00,
2013-02-26 23:25:00,28.4,24.5,30.28,SSW,201,2.0,3.0,85,0.00,,---,0.00,VWS V13.00,2013-02-27 07:25:00,
2013-02-26 23:30:00,28.3,24.7,30.29,SSW,201,2.0,3.0,86,0.00,,---,0.00,VWS V13.00,2013-02-27 07:30:00,
2013-02-26 23:35:00,28.3,24.7,30.29,SSW,201,2.0,3.0,86,0.00,,---,0.00,VWS V13.00,2013-02-27 07:35:00,
2013-02-26 23:40:00,28.3,24.7,30.28,SSW,201,1.0,3.0,86,0.00,,---,0.00,VWS V13.00,2013-02-27 07:40:00,
2013-02-26 23:45:00,28.3,24.7,30.28,SSW,200,1.0,3.0,86,0.00,,---,0.00,VWS V13.00,2013-02-27 07:45:00,
2013-02-26 23:50:00,28.3,24.9,30.28,WNW,292,2.0,4.0,87,0.00,,---,0.00,VWS V13.00,2013-02-27 07:50:00,
2013-02-26 23:55:00,28.3,24.9,30.28,WNW,292,2.0,4.0,87,0.00,,---,0.00,VWS V13.00,2013-02-27 07:55:00,